Content
SEND FEEDBACK

Daily
Averages
Monthly
Summary
United States of America

IGNACIO, COLORADO


Home > North America > United States > Colorado
Elevation: 6522 feet     Latitude: 37 08N     Longitude: 107 38W

WEATHER
 
SELECT A DAY
Number of Records: 183,041;   Date Range: 1/1/95 - 8/28/14
 
SHARE

PRINT THIS DATA

[ ← Previous Day ]
WEATHER ALMANAC - FEBRUARY 5, 2013
[ Next Day → ]
[ °C ]   °F
Weather ElementAverageHighLow
Temperature30 °F44.1 °F (3:53 pm)18 °F (5:53 am)
Dewpoint22.6 °F28.9 °F (2:53 pm)15.1 °F (5:53 am)
Humidity75.5 %96 % (7:53 am)51 % (4:53 pm)
Barometer30.18 in30.27 in (7:53 am)30.09 in (4:53 pm)
Wind Speed2.7 mph8.1 mph (1:53 am)
Weather ElementAverage
Visibility9.3 mi
Wind DirectionENE (56.4 °)

Weather ElementTotal
Precipitation---
Heating Degree Days34 (Base 65)
Averaged from 22 records on February 5, 2013
WEATHER CONDITIONS BREAKOUT
WIND DIRECTION BREAKOUT
WEATHER BY HOUR - FEBRUARY 5, 2013
[ °C ]   °F
Local TimeTemperatureDewpointHumidityBarometerVisibilityWind DirectionWind SpeedGust SpeedPrecipitationEventsConditions
1:53 AM19.9 °F18.0 °F92 %30.20 in7.0 miENE (60°)8.1 mphClear
2:53 AM19.0 °F17.1 °F92 %30.19 in8.0 miCalmClear
3:53 AM19.0 °F17.1 °F92 %30.19 in9.0 miNE (40°)3.5 mphClear
4:53 AM19.9 °F17.1 °F89 %30.21 in8.0 miCalmClear
5:53 AM18.0 °F15.1 °F88 %30.23 in10.0 miCalmClear
6:53 AM19.0 °F17.1 °F92 %30.26 in8.0 miNNE (20°)4.6 mphClear
7:53 AM19.0 °F18.0 °F96 %30.27 in6.0 miCalmClear
8:53 AM24.1 °F21.9 °F91 %30.27 in9.0 miCalmClear
9:53 AM28.9 °F21.9 °F75 %30.25 in10.0 miCalmClear
10:53 AM32.0 °F25.0 °F75 %30.24 in10.0 miEast (100°)4.6 mphClear
11:53 AM36.0 °F28.0 °F73 %30.18 in10.0 miEast (90°)3.5 mphClear
12:53 PM41.0 °F27.0 °F57 %30.14 in10.0 miCalmClear
1:53 PM42.1 °F28.0 °F58 %30.13 in10.0 miCalmClear
2:53 PM43.0 °F28.9 °F58 %30.12 in10.0 miNE (50°)4.6 mphClear
3:53 PM44.1 °F28.0 °F53 %30.10 in10.0 miENE (60°)4.6 mphClear
4:53 PM44.1 °F27.0 °F51 %30.09 in10.0 miCalmClear
5:53 PM36.0 °F26.1 °F67 %30.14 in10.0 miEast (80°)3.5 mphClear
6:53 PM36.0 °F26.1 °F67 %30.14 in10.0 miCalmClear
7:53 PM32.0 °F23.0 °F69 %30.17 in10.0 miNorth (360°)5.8 mphClear
8:53 PM30.9 °F23.0 °F72 %30.16 in10.0 miNorth (10°)4.6 mphClear
9:53 PM28.9 °F21.9 °F75 %30.14 in10.0 miNorth (360°)6.9 mphClear
10:53 PM27.0 °F21.0 °F78 %30.12 in10.0 miNorth (10°)5.8 mphClear
Hourly data recorded from KDRO, located miles away from Ignacio, Colorado







STORIES FROM OUR PARTNERS